Challenge de la Forêt de la Semois et de la Houille

Le Trail Des Fées - Bertrix (49.30 km)

samedi 11 septembre 2021

Vous pouvez trouver Le classement original sur : http://ultratiming.be
CHALLENGE DE LA FORÊT DE LA SEMOIS ET DE LA HOUILLE
LE TRAIL DES FÉES - BERTRIX
DISTANCE 49.30 km
samedi 11 septembre 2021
 
Place Dos NOM Equipe Catégorie Pl/cat Temps Temps/km Vitesse
01:00:00                
1 50069 GEORGES BENOIT - V1H 1 4:37:39 05:38 10.65
2 50063 VANDENBUSSCHE DENNIS - SEH 1 5:11:24 06:19 9.50
3 50080 ANCIAUX EDDY - V2H 1 5:12:47 06:21 9.46
4 50070 GUIOT CÉDRIC - V1H 2 5:17:53 06:27 9.31
5 50018 FABRE MICHAËL TRAIL FOR FUN H V2H 2 5:17:54 06:27 9.30
6 50036 LUMEN EMMANUEL RST ATH V1H 3 5:41:10 06:55 8.67
7 50005 BOVY GEOFFREY - V1H 4 5:51:45 07:08 8.41
8 50044 MONHONVAL ESTEBAN - SEH 2 5:51:46 07:08 8.41
9 50048 NORMAND JOACHIM TEAM TRAIL SING SEH 3 5:52:17 07:09 8.40
10 50009 CHRISTOPHE CELINE - SEF 1 5:59:40 07:18 8.22
11 50032 LEMIRE LAURENT - V1H 5 6:02:04 07:21 8.17
12 50059 TASSART MAXIME ETM V1H 6 6:20:53 07:44 7.77
13 50034 LEROY REMY ETM SEH 4 6:20:53 07:44 7.77
14 50065 WAGNER FRANK - V2H 3 6:28:01 07:52 7.62
15 50072 CAMBIER PASCAL - V1H 7 6:29:36 07:54 7.59
16 33089 HOUDOU SOPHIE RUN & SMASH TRA V1F 1 6:29:50 07:54 7.59
17 50002 ANNEESSENS JOACHIM RUN & SMASH TRA SEH 5 6:29:50 07:54 7.59
18 50067 MARLIER STÉPHANE - SEH 6 6:30:26 07:55 7.58
19 50054 PROVOST SEBASTIEN ETM V1H 8 6:31:20 07:56 7.56
20 50006 BREYNE GUILLAUME #TRAILFORWARRIO V1H 9 6:31:21 07:56 7.56
21 50049 PASSCHIER SÉBASTIEN ETM V1H 10 6:31:22 07:56 7.56
22 50075 DESSOY HAROLD TEAMTRAIL5170 V2H 4 6:40:09 08:07 7.39
23 50003 AYET ANNE-SOPHIE ASPTT VERDUN / SEF 2 6:40:25 08:07 7.39
24 50039 MATHELIN FLORENCE TREK&TRAIL V2F 1 6:40:37 08:08 7.38
25 50027 HENNETIER MAXIME - SEH 7 6:40:42 08:08 7.38
26 50073 GILTAIRE STÉPHANE - V2H 5 6:41:00 08:08 7.38
27 50004 BAIJOT PHILIPPE JCCS V2H 6 6:47:04 08:15 7.27
28 6003 ROSILLON SIMON NÉANT SEH 8 6:48:23 08:17 7.24
29 50017 DUBUS DAVID #TRAILFORWARRIO V2H 7 6:50:26 08:20 7.21
30 50023 GRUSON BENOIT RUN AND SMASH T V1H 11 6:52:15 08:22 7.18
31 50030 LEBLANC MARC #TRAILFORWARRIO V1H 12 7:05:50 08:38 6.95
32 50015 DETOLLENAERE DAMIEN ETM V1H 13 7:05:51 08:38 6.95
33 50013 DELBROUCK SIMON - SEH 9 7:06:55 08:40 6.93
34 50077 DUCHÊNE MATTHIEU - SEH 10 7:11:14 08:45 6.86
35 50050 PIERLOT JACQUES - V2H 8 7:12:33 08:46 6.84
36 50045 MONIN MIGUEL ARCH V1H 14 7:13:23 08:47 6.83
37 6004 CLAES DAVID AVZK V1H 15 7:16:59 08:52 6.77
38 50068 ALLEGAERT FREDERICK - SEH 11 7:21:45 08:58 6.70
39 6001 DEMOULIN STEEVE - V1H 16 7:34:13 09:13 6.51
40 6006 BERNARD MAXENCE - SEH 12 7:40:24 09:20 6.42
41 6005 CROES OLIVIER - SEH 13 7:40:26 09:20 6.42
42 50016 DEWAR BENOIT MAT TEAM TRAIL SEH 14 7:43:57 09:25 6.38
43 50064 VERHAEGHE XAVIER - V2H 9 7:52:28 09:35 6.26
44 50041 MESEURE DOMINIQUE #TRAILFORWARRIO V3H 1 8:00:03 09:44 6.16
45 50040 MENET PAUL-HENRI #TRAILFORWARRIO V1H 17 8:08:42 09:55 6.05
46 50008 CARLIER FRANCK AS CRS15 V1H 18 8:51:09 10:46 5.57
47 50079 SAEN DOMINIQUE - XXX   9:01:22 10:59 5.46
                 
Nos dernières videos